Regional Weather Roundup
Issued by NWS Little Rock, AR

Home | Current Version | Previous Version | Text Only | Print | Product List | Glossary On
Versions: 1 2 3 4 5 6 7 8 9 10 11 12 13 14 15 16 17 18 19 20 21 22 23 24 25 26 27 28
000
ASUS44 KLZK 300905
RWRLZK

WEATHER ROUNDUP FOR ARKANSAS
NATIONAL WEATHER SERVICE LITTLE ROCK AR
400 AM CDT SAT APR 30 2016

NOTE: "FAIR" INDICATES FEW OR NO CLOUDS BELOW 12,000 FEET WITH NO
SIGNIFICANT WEATHER AND/OR OBSTRUCTIONS TO VISIBILITY.

ARZ001-003-010-029-301000-
NORTHWEST ARKANSAS

CITY           SKY/WX    TMP DP  RH WIND       PRES   REMARKS
FAYETTEVILLE   CLOUDY    61  61 100 S3        29.65R
FORT SMITH     CLOUDY    64  61  90 S3        29.67R
HARRISON       CLOUDY    62  61  96 SE12G20   29.70R
BENTONVILLE    CLOUDY   N/A N/A N/A S6        29.65R
ROGERS         CLOUDY    62  60  93 S7        29.66R
SILOAM SPGS    CLOUDY    63  54  72 S6        29.66R
HIGHFILL       CLOUDY    62  62 100 SE6       29.64R
$$

ARZ004-005-016-301000-
NORTH CENTRAL ARKANSAS

CITY           SKY/WX    TMP DP  RH WIND       PRES   REMARKS
BATESVILLE     CLOUDY    64  63  94 E12G17    29.78R
FLIPPIN        CLOUDY   N/A N/A N/A NE5       29.69F
MTN HOME       HVY RAIN  61  61 100 E10       29.71F FOG
$$

ARZ040-041-301000-
WEST CENTRAL ARKANSAS

CITY           SKY/WX    TMP DP  RH WIND       PRES   REMARKS
MENA           CLOUDY    68  64  88 SE13G20   29.72R
MOUNT IDA      HVY RAIN  65  62  90 SE15G29   29.70F FOG
$$

ARZ009-017-025-026-028-301000-
NORTHEAST ARKANSAS

CITY           SKY/WX    TMP DP  RH WIND       PRES   REMARKS
CORNING        HVY RAIN  63  63 100 E14       29.83S
JONESBORO      RAIN      63  32  31 NW5       29.83R
NEWPORT        RAIN      64  64 100 SE8       29.81S
WALNUT RIDGE   CLOUDY    63  59  88 E14       29.81S
BLYTHEVILLE    TSTM      63 N/A N/A NW9       29.85R
$$

ARZ022-023-033-042-044-301000-
CENTRAL ARKANSAS

CITY           SKY/WX    TMP DP  RH WIND       PRES   REMARKS
LITTLE ROCK    LGT RAIN  67  63  87 S21G33    29.79R FOG
N LITTLE ROCK    N/A     65  62  93 S12G25    29.78R
JACKSONVILLE   LGT RAIN  66  66 100 S22G33    29.78R
SEARCY         CLOUDY    66  64  94 S10       29.78F
HOT SPRINGS    RAIN      64  61  90 SW8       29.77R
RUSSELLVILLE   LGT RAIN  65  64  97 SE10      29.64F
$$

ARZ036-301000-
EAST ARKANSAS

CITY           SKY/WX    TMP DP  RH WIND       PRES   REMARKS
WEST MEMPHIS   LGT RAIN  64  64 100 SE9       29.79F
$$

ARZ050-053-066-070-073-301000-
SOUTHWEST ARKANSAS

CITY           SKY/WX    TMP DP  RH WIND       PRES   REMARKS
CAMDEN         HVY RAIN  64  63  94 S7        29.79F
TEXARKANA      TSTM      66  64  93 SE15G28   29.70F FOG
EL DORADO      RAIN      68  64  87 S12       29.80R
DE QUEEN       LGT RAIN  66  65  96 SE14G22   29.66F
$$

ARZ056-057-069-301000-
SOUTHEAST ARKANSAS

CITY           SKY/WX    TMP DP  RH WIND       PRES   REMARKS
PINE BLUFF     HVY RAIN  68  65  90 SW13G24   29.81R
STUTTGART      CLOUDY    66  63  88 S21G28    29.81R
MONTICELLO     LGT RAIN  72  70  93 CALM      29.77S FOG

$$






USA.gov is the U.S. government's official web portal to all federal, state and local government web resources and services.